Regional Weather Roundup
Issued by NWS

Home | Current Version | Previous Version | Text Only | Print | Product List | Glossary Off
Versions: 1 2 3 4 5 6 7 8 9 10 11 12 13 14 15 16 17 18 19 20 21 22 23 24 25 26 27 28 29 30 31 32 33 34 35 36 37 38 39 40 41 42 43 44 45 46 47 48 49 50

000
ASUS45 KCYS 250010
RWRWY

WYOMING REGIONAL WEATHER ROUNDUP
NATIONAL WEATHER SERVICE CHEYENNE WY
500 PM MST SAT JAN 24 2015

NOTE:  "FAIR" INDICATES FEW OR NO CLOUDS BELOW 12,000 FEET
WITH NO SIGNIFICANT WEATHER AND/OR OBSTRUCTIONS TO VISIBILITY.

WYZ001-250100-
YELLOWSTONE NATIONAL PARK

CITY           SKY/WX    TMP DP  RH WIND       PRES   REMARKS
LK YELLOWSTONE   N/A     27  20  75 CALM      30.32R
6HR MIN TEMP:  24; 6HR MAX TEMP:  29;

W YELLOWSTONE  NOT AVBL

$$
WYZ002>013-054>058-071-098>099-250100-
NORTHERN WYOMING

CITY           SKY/WX    TMP DP  RH WIND       PRES   REMARKS
JACKSON        CLOUDY    27  25  93 N12       30.34R WCI  16
CODY           FAIR      45  23  42 NW12      30.11R
GREYBULL       FAIR      31  24  75 CALM      30.12R
6HR MIN TEMP:  28; 6HR MAX TEMP:  34; 6HR PCP: TRACE;

WORLAND        FAIR      26  22  84 S7        30.11S WCI  18
6HR MIN TEMP:  26; 6HR MAX TEMP:  32;

SHERIDAN       CLOUDY    38  32  79 W22       30.09S WCI  27
6HR MIN TEMP:  36; 6HR MAX TEMP:  49; 6HR PCP:  0.02;

BUFFALO        FLURRIES  37  32  82 NW31G49   30.09R WCI  24
6HR MIN TEMP:  33; 6HR MAX TEMP:  53; 6HR PCP:  0.10;

GILLETTE       CLOUDY    36  32  85 W17       30.03R WCI  26
6HR MIN TEMP:  36; 6HR MAX TEMP:  49; 6HR PCP:  0.02;

HULETT           N/A    N/A N/A N/A MISG        N/A
NEWCASTLE      FAIR      34  34 100 NW16      29.97R WCI  23

$$
WYZ014>020-022>026-101>103-250100-
CENTRAL WYOMING

CITY           SKY/WX    TMP DP  RH WIND       PRES   REMARKS
BIG PINEY      FAIR      37  27  67 N12       30.28R WCI  29
6HR MIN TEMP:  21; 6HR MAX TEMP:  43;

PINEDALE       FAIR      32  28  86 W15       30.26S WCI  22
DUBOIS         FAIR      36  27  69 NW25G39   30.19F WCI  23
LANDER         FAIR      41  28  60 MISG      30.13R
6HR MIN TEMP:  33; 6HR MAX TEMP:  47;

RIVERTON       FAIR      36  24  62 N6        30.15R WCI  31
6HR MIN TEMP:  31; 6HR MAX TEMP:  47;

CASPER         FAIR      36  26  67 W8        30.11R WCI  30
6HR MIN TEMP:  35; 6HR MAX TEMP:  39;

DOUGLAS        CLOUDY    36  34  92 NW22G30   30.09R WCI  25
6HR MIN TEMP:  36; 6HR MAX TEMP:  48; 6HR PCP:  0.02;


$$
WYZ021-027>030-104>119-250100-
SOUTHERN WYOMING

CITY           SKY/WX    TMP DP  RH WIND       PRES   REMARKS
EVANSTON       CLOUDY    34  25  69 SW13      30.40R WCI  25
6HR MIN TEMP:  23; 6HR MAX TEMP:  37;

KEMMERER       CLOUDY    30  28  93 W24       30.34F WCI  16
FORT BRIDGER   CLOUDY    37  29  75 W23       30.38S WCI  25
ROCK SPRINGS   FAIR      35  25  66 W31G39    30.26F WCI  22
6HR MIN TEMP:  29; 6HR MAX TEMP:  38;

DIXON          CLOUDY    34  20  57 SW3       30.31R
RAWLINS        FAIR      32  20  61 W22       30.20R WCI  19
6HR MIN TEMP:  30; 6HR MAX TEMP:  34;

SARATOGA       CLOUDY    34  21  60 W16G25    30.20F WCI  23
LARAMIE        FAIR      34  21  59 W26G33    30.09R WCI  21
6HR MIN TEMP:  34; 6HR MAX TEMP:  42;

CHEYENNE       CLOUDY    37  28  70 NW21G28   30.04R WCI  26
6HR MIN TEMP:  36; 6HR MAX TEMP:  47; 6HR PCP: TRACE;

TORRINGTON     CLOUDY    43  29  57 W17       29.99R
6HR MIN TEMP:  43; 6HR MAX TEMP:  50;

PINE BLUFFS    CLOUDY    41  28  60 NW26G32   30.02R

$$


USA.gov is the U.S. government's official web portal to all federal, state and local government web resources and services.